Weather History for Dillon, MT

Change the Weather History Date:

Wednesday, July 17, 2013

  Actual Average Record
Temperature  
Mean Temperature 69 °F 66 °F  
Max Temperature 82 °F 83 °F 97 °F (1966)
Min Temperature 56 °F 50 °F 33 °F (1973)
Degree Days  
Heating Degree Days 0    
Month to date heating degree days 0  
Since 1 June heating degree days 188  
Since 1 July heating degree days 0  
Cooling Degree Days 4    
Month to date cooling degree days 80  
Year to date cooling degree days 105  
Since 1 June cooling degree days 102  
Growing Degree Days 18 (Base 50)    
Moisture  
Dew Point 58 °F    
Average Humidity 72    
Maximum Humidity 93    
Minimum Humidity 51    
Precipitation  
Precipitation 0.35 in 0.04 in 1.44 in (1987)
Month to date precipitation 0.83 0.67  
Year to date precipitation 5.41 6.71  
Snow  
Snow 0.00 in - - ()
Snow Depth 0.00 in    
Sea Level Pressure  
Sea Level Pressure 30.11 in    
Wind  
Wind Speed 5 mph (NW)    
Max Wind Speed 26 mph    
Max Gust Speed 33 mph    
Visibility 8 miles    
Events Rain , Thunderstorm    
T = Trace of Precipitation, MM = Missing Value Source: NWS Daily Summary

Daily Weather History Graph

Daily Weather History Graph

Search for Another Location

Airport:

Trip Planner

Search our weather history database for the weather conditions in past years. The results will help you decide how hot, cold, wet, or windy it might be!

Date:

Astronomy

Jul. 17, 2013 Rise Set
Actual Time 5:59 AM MDT 9:13 PM MDT
Civil Twilight 5:23 AM MDT 9:48 PM MDT
Nautical Twilight 4:36 AM MDT 10:35 PM MDT
Astronomical Twilight 3:38 AM MDT 11:32 PM MDT
Moon 4:03 PM MDT (7/17) 1:14 AM MDT (7/17)
Length of Visible Light 16h 25m
Length of Day
15h 14m
Waxing Gibbous, 68% of the Moon is Illuminated
Jul 17
Waxing Gibbous
Jul 22
Full
Jul 29
Last Quarter
Aug 6
New
Aug 14
First Quarter

Hourly Weather History & Observations

Time (MDT) Temp. Heat Index Dew Point Humidity Pressure Visibility Wind Dir Wind Speed Gust Speed Precip Events Conditions
12:53 AM 61.0 °F - 57.0 °F 87% 30.14 in 4.0 mi SSW 3.5 mph - 0.08 in Rain Rain
1:03 AM 60.8 °F - 57.2 °F 88% 30.28 in 2.5 mi Calm Calm - 0.06 in Rain , Thunderstorm Heavy Rain
1:16 AM 59.0 °F - 57.2 °F 94% 30.28 in 1.5 mi WSW 8.1 mph - 0.16 in Rain Heavy Rain
1:30 AM 59.0 °F - 57.2 °F 94% 30.28 in 2.5 mi Calm Calm - 0.22 in Rain Rain
1:40 AM 59.0 °F - 57.2 °F 94% 30.28 in 4.0 mi Calm Calm - 0.23 in Rain Light Rain
1:53 AM 59.0 °F - 57.0 °F 93% 30.13 in 6.0 mi NE 3.5 mph - 0.25 in Rain Rain
2:53 AM 59.0 °F - 57.0 °F 93% 30.11 in 7.0 mi Calm Calm - 0.07 in Rain Light Rain
3:53 AM 57.0 °F - 55.9 °F 96% 30.09 in 4.0 mi West 4.6 mph - 0.00 in   Partly Cloudy
3:56 AM 55.4 °F - 55.4 °F 100% 30.24 in 1.8 mi West 5.8 mph - N/A   Partly Cloudy
4:06 AM 55.4 °F - 55.4 °F 100% 30.23 in 4.0 mi West 4.6 mph - N/A   Scattered Clouds
4:53 AM 57.0 °F - 55.9 °F 96% 30.08 in 10.0 mi SSW 5.8 mph - N/A   Mostly Cloudy
5:53 AM 59.0 °F - 57.0 °F 93% 30.06 in 10.0 mi South 8.1 mph - 0.01 in   Mostly Cloudy
6:35 AM 57.2 °F - 57.2 °F 100% 30.21 in 10.0 mi West 3.5 mph - 0.00 in Thunderstorm Thunderstorm
6:53 AM 59.0 °F - 55.9 °F 90% 30.06 in 10.0 mi Calm Calm - 0.00 in Thunderstorm Scattered Clouds
7:03 AM 59.0 °F - 57.2 °F 94% 30.20 in 10.0 mi Calm Calm - N/A   Mostly Cloudy
7:53 AM 61.0 °F - 57.9 °F 90% 30.08 in 10.0 mi NNE 5.8 mph - N/A   Clear
8:53 AM 62.1 °F - 57.9 °F 86% 30.10 in 10.0 mi ENE 4.6 mph - N/A   Partly Cloudy
9:53 AM 66.0 °F - 57.9 °F 75% 30.09 in 10.0 mi Calm Calm - N/A   Clear
10:53 AM 68.0 °F - 57.9 °F 70% 30.08 in 10.0 mi Calm Calm - N/A   Clear
11:53 AM 70.0 °F - 59.0 °F 68% 30.07 in 10.0 mi Calm Calm - N/A   Clear
12:53 PM 75.0 °F - 57.0 °F 53% 30.05 in 10.0 mi Variable 3.5 mph - N/A   Clear
1:53 PM 77.0 °F - 60.1 °F 56% 30.03 in 10.0 mi NNW 3.5 mph - N/A   Clear
2:53 PM 82.0 °F 83.0 °F 62.1 °F 51% 29.98 in 10.0 mi Variable 5.8 mph - N/A   Clear
3:53 PM 73.9 °F - 64.0 °F 71% 29.98 in 10.0 mi North 4.6 mph - N/A Thunderstorm Partly Cloudy
4:53 PM 66.0 °F - 57.9 °F 75% 30.09 in 7.0 mi WNW 18.4 mph 23.0 mph 0.02 in Rain , Thunderstorm Light Rain
5:44 PM 64.4 °F - 57.2 °F 77% 30.16 in 10.0 mi ESE 23.0 mph 33.4 mph 0.03 in   Scattered Clouds
5:53 PM 64.9 °F - 57.9 °F 78% 30.04 in 10.0 mi ESE 17.3 mph - 0.03 in   Partly Cloudy
6:53 PM 70.0 °F - 60.1 °F 71% 30.03 in 10.0 mi WNW 10.4 mph 23.0 mph N/A   Clear
7:53 PM 70.0 °F - 60.1 °F 71% 30.02 in 10.0 mi North 5.8 mph - N/A   Clear
8:53 PM 68.0 °F - 59.0 °F 73% 30.04 in 10.0 mi NNE 3.5 mph - N/A   Clear
9:53 PM 64.0 °F - 59.0 °F 84% 30.05 in 10.0 mi ESE 6.9 mph - N/A   Clear
10:53 PM 62.1 °F - 57.0 °F 84% 30.07 in 10.0 mi SE 5.8 mph - N/A   Clear
11:53 PM 61.0 °F - 57.0 °F 87% 30.08 in 10.0 mi SE 3.5 mph - N/A   Clear